Flag for U.S.A. Weather past 2 weeks in Clovis, New Mexico, U.S.A.

Now
74 °F

Clear.


Feels Like: 77 °F
Forecast: 67 / 87 °F
Wind: 12 mph from Northwest

Location: Cannon Air Force Base / Clovis

Current Time: Jul 2, 2015 at 4:09:35 AM

Latest Report: Jul 2, 2015 at 2:58 AM


Visibility: 10 mi

Pressure: 30.10 "Hg

Humidity: 58%

Dew point: 58 °F

Location of ClovisLocation

Historic Weather in Clovis — Graph

°F

Clovis temperature yesterday

Maximum temperature yesterday: 94 °F (at 4:58 PM)
Minimum temperature yesterday: 63 °F (at 5:58 AM)
Average temperature yesterday: 78 °F

Past Weeks' High & Low Weather Summary

 TemperatureHumidityPressure
High94 °F (Jul 1, 4:58 PM)100% (Jun 17, 2:58 AM)30.14 "Hg (Jun 17, 2:58 AM)
Low60 °F (Jun 24, 5:58 AM)20% (Jul 1, 4:58 PM)29.78 "Hg (Jun 20, 5:58 PM)
Average76 °F59%29.96 "Hg
* Reported Jun 17 2:58 AM — Jul 2 2:58 AM, Clovis, Weather by CustomWeather, © 2015

Note: Actual official high and low records may vary slightly from our data, if they occured in-between our weather recording intervals... More about our weather records

Advertising

Clovis weather history for previous 24 hours

 ConditionsComfort  
Time TempWeatherWind HumidityBarometerVisibility
2:58 AM
Thu, Jul 2
74 °FClear.12 mph58%30.10 "Hg10 mi
1:58 AM71 °FPassing clouds.7 mph66%30.08 "Hg10 mi
12:58 AM72 °FPassing clouds.8 mph63%29.87 "Hg10 mi
11:58 PM
Wed, Jul 1
71 °FClear.6 mph66%29.89 "Hg10 mi
10:58 PM73 °FClear.6 mph59%29.89 "Hg10 mi
9:58 PM74 °FClear.8 mph49%29.86 "Hg10 mi
8:58 PM79 °FSunny.8 mph43%29.83 "Hg10 mi
7:58 PM85 °FSunny.13 mph36%29.82 "Hg10 mi
6:58 PM89 °FSunny.14 mph31%29.81 "Hg9 mi
5:58 PM92 °FSunny.12 mph28%29.81 "Hg9 mi
4:58 PM94 °FSunny.No wind20%29.82 "Hg10 mi
3:58 PM93 °FPassing clouds.2 mph21%29.84 "Hg10 mi
2:58 PM92 °FPassing clouds.7 mph21%29.85 "Hg10 mi
1:58 PM92 °FPassing clouds.8 mph23%29.86 "Hg10 mi
12:58 PM89 °FSunny.6 mph26%29.88 "Hg10 mi
11:58 AM88 °FSunny.5 mph30%29.88 "Hg10 mi
10:58 AM85 °FSunny.9 mph35%29.94 "Hg10 mi
9:58 AM83 °FSunny.10 mph41%29.95 "Hg10 mi
8:58 AM78 °FSunny.15 mph59%29.97 "Hg10 mi
7:58 AM72 °FSunny.14 mph71%29.94 "Hg10 mi
6:58 AM66 °FSunny.No wind78%29.96 "Hg10 mi
5:58 AM63 °FClear.6 mph83%29.96 "Hg10 mi
4:58 AM64 °FClear.7 mph80%29.95 "Hg10 mi
Weather by CustomWeather, © 2015

See weather overviewHow to use our weather pages